sat.trackr.live / text

‹ back to catalog

HULIANWANG DIGUI-55

NORAD 65112 · 2025-168G

PAYLOAD ACTIVE UNKNOWN

§ Identity

Operator
Country
PRC
Launch date
2025-08-04
Launch site
WSC
Launch vehicle
Mass (kg)
RCS (m²)

External: N2YO · Heavens-Above · Gunter

§ Orbital elements

Epoch: 2026-09-21T17:24:14.914368Z

Period
108.33 min
Inclination
50.0015°
Eccentricity
0.0011106
Mean motion
13.29326932 rev/d
Perigee alt
1,140.9 km
Apogee alt
1,157.7 km
Semi-major
7,527.4 km
B*
6.7365e-5
RAAN
339.2356°
Arg perigee
20.2140°
Mean anomaly
339.9170°
Rev number
5,553

§ Raw data

HULIANWANG DIGUI-551 65112U 25168G   26264.72517262 -.00000093  00000+0  67365-4 0  99922 65112  50.0015 339.2356 0011106  20.2140 339.9170 13.29326932 55537

JSON: /api/v1/satellites/65112 · /tle

For live sub-satellite position, see the globe view (requires WebGL).

§ Visibility from observer

Set your observer location to see the next 7 days of passes ≥ 10°. The values pass through the URL so the page stays shareable.

No JS? Fill the form by hand. The geolocation button needs JavaScript.